Date,Time,TEMPERATURE,CONDUCTIVITY,WATER LEVEL,WATER DEPTH
09/07/2015,00:00:00,14.9,530.7,6.35,51.40
10/07/2015,00:00:00,14.9,530.7,6.35,51.40
11/07/2015,00:00:00,14.9,539.7,6.37,51.38
12/07/2015,00:00:00,14.9,539.7,6.42,51.33
13/07/2015,00:00:00,14.9,546.4,6.46,51.29
14/07/2015,00:00:00,14.9,546.7,6.48,51.27
15/07/2015,00:00:00,14.9,546.9,6.51,51.24
16/07/2015,00:00:00,14.9,542.1,6.55,51.20
17/07/2015,00:00:00,15.0,545.3,6.58,51.17
18/07/2015,00:00:00,15.0,549.5,6.60,51.15
19/07/2015,00:00:00,14.9,546.2,6.67,51.08
20/07/2015,00:00:00,14.9,542.5,6.75,51.00
21/07/2015,00:00:00,14.9,537.3,6.82,50.93
22/07/2015,00:00:00,14.9,539.8,6.87,50.88
23/07/2015,00:00:00,14.9,542.1,6.93,50.82
24/07/2015,00:00:00,14.9,542.0,6.98,50.77
25/07/2015,00:00:00,14.9,540.7,7.02,50.73
26/07/2015,00:00:00,14.9,546.4,7.06,50.69
27/07/2015,00:00:00,14.9,541.2,7.11,50.64
28/07/2015,00:00:00,14.9,543.8,7.16,50.59
29/07/2015,00:00:00,14.8,546.0,7.22,50.53
30/07/2015,00:00:00,14.5,548.8,7.31,50.44
31/07/2015,00:00:00,14.5,545.1,7.37,50.37
01/08/2015,00:00:00,14.4,549.5,7.46,50.29
02/08/2015,00:00:00,14.5,542.4,7.50,50.25
03/08/2015,00:00:00,14.4,546.8,7.54,50.21
04/08/2015,00:00:00,14.4,543.0,7.60,50.15
05/08/2015,00:00:00,14.3,550.8,7.69,50.06
06/08/2015,00:00:00,14.4,540.9,7.73,50.01
07/08/2015,00:00:00,14.3,551.9,7.82,49.93
08/08/2015,00:00:00,14.4,548.2,7.86,49.89
09/08/2015,00:00:00,14.5,524.6,7.86,49.89
10/08/2015,00:00:00,14.5,536.1,7.91,49.84
11/08/2015,00:00:00,14.6,528.2,7.94,49.81
12/08/2015,00:00:00,14.5,542.7,7.99,49.76
13/08/2015,00:00:00,14.5,532.8,8.02,49.73
14/08/2015,00:00:00,14.5,534.7,8.08,49.67
15/08/2015,00:00:00,14.5,532.3,8.13,49.62
16/08/2015,00:00:00,14.6,522.8,8.16,49.59
17/08/2015,00:00:00,14.5,533.2,8.20,49.55
18/08/2015,00:00:00,14.4,534.6,8.23,49.52
19/08/2015,00:00:00,14.2,553.0,8.30,49.45
20/08/2015,00:00:00,14.2,553.1,8.36,49.39
21/08/2015,00:00:00,14.2,552.9,8.40,49.35
22/08/2015,00:00:00,14.2,552.3,8.47,49.28
23/08/2015,00:00:00,14.1,551.6,8.55,49.20
24/08/2015,00:00:00,14.2,550.9,8.60,49.15
25/08/2015,00:00:00,14.2,543.3,8.63,49.12
26/08/2015,00:00:00,14.2,542.2,8.66,49.09
27/08/2015,00:00:00,14.2,550.0,8.71,49.03
28/08/2015,00:00:00,14.1,550.6,8.77,48.98
29/08/2015,00:00:00,14.1,550.4,8.80,48.94
30/08/2015,00:00:00,14.1,549.7,8.84,48.91
31/08/2015,00:00:00,14.1,550.3,8.90,48.85
01/09/2015,00:00:00,14.1,550.2,8.97,48.78
02/09/2015,00:00:00,14.1,548.8,9.02,48.72
03/09/2015,00:00:00,14.1,548.6,9.08,48.67
04/09/2015,00:00:00,14.1,548.8,9.13,48.62
05/09/2015,00:00:00,14.1,544.1,9.15,48.60
06/09/2015,00:00:00,14.1,549.9,9.18,48.57
07/09/2015,00:00:00,14.0,549.2,9.25,48.50
08/09/2015,00:00:00,14.1,543.4,9.28,48.47
09/09/2015,00:00:00,14.3,527.0,9.24,48.51
10/09/2015,00:00:00,14.4,527.3,9.20,48.55
11/09/2015,00:00:00,14.5,529.4,9.18,48.57
12/09/2015,00:00:00,14.1,544.2,9.25,48.50
13/09/2015,00:00:00,14.1,549.0,9.31,48.44
14/09/2015,00:00:00,14.0,553.6,9.40,48.35
15/09/2015,00:00:00,14.0,554.8,9.47,48.27
16/09/2015,00:00:00,14.0,555.7,9.54,48.21
17/09/2015,00:00:00,14.0,555.5,9.62,48.13
18/09/2015,00:00:00,14.0,554.3,9.69,48.06
19/09/2015,00:00:00,14.0,554.3,9.75,48.00
20/09/2015,00:00:00,14.0,554.0,9.80,47.95
21/09/2015,00:00:00,14.0,552.6,9.84,47.91
22/09/2015,00:00:00,14.0,553.0,9.90,47.85
23/09/2015,00:00:00,14.1,532.2,9.88,47.87
24/09/2015,00:00:00,14.2,531.2,9.80,47.96
25/09/2015,00:00:00,14.3,531.8,9.73,48.03
26/09/2015,00:00:00,14.4,532.5,9.69,48.06
27/09/2015,00:00:00,14.4,532.4,9.68,48.08
28/09/2015,00:00:00,14.4,532.9,9.65,48.11
29/09/2015,00:00:00,14.5,533.2,9.61,48.14
30/09/2015,00:00:00,14.5,533.4,9.59,48.16
01/10/2015,00:00:00,14.5,534.1,9.58,48.17
02/10/2015,00:00:00,14.5,534.4,9.55,48.20
03/10/2015,00:00:00,14.6,534.4,9.52,48.23
04/10/2015,00:00:00,14.6,535.0,9.49,48.26
05/10/2015,00:00:00,14.6,535.1,9.49,48.26
06/10/2015,00:00:00,14.6,535.1,9.53,48.22
07/10/2015,00:00:00,14.5,532.9,9.60,48.15
08/10/2015,00:00:00,14.5,532.6,9.62,48.13
09/10/2015,00:00:00,14.4,533.0,9.64,48.11
10/10/2015,00:00:00,14.2,541.1,9.64,48.11
11/10/2015,00:00:00,14.2,542.6,9.65,48.10
12/10/2015,00:00:00,14.1,548.5,9.70,48.05
13/10/2015,00:00:00,14.1,550.3,9.74,48.01
14/10/2015,00:00:00,14.1,550.4,9.75,48.00
15/10/2015,00:00:00,14.0,550.6,9.77,47.98
16/10/2015,00:00:00,14.0,551.7,9.80,47.95
17/10/2015,00:00:00,14.0,547.8,9.81,47.94
18/10/2015,00:00:00,14.0,551.9,9.86,47.89
19/10/2015,00:00:00,13.9,552.6,9.90,47.85
20/10/2015,00:00:00,13.9,553.9,9.95,47.80
21/10/2015,00:00:00,13.9,555.0,10.00,47.75
22/10/2015,00:00:00,14.0,551.1,10.01,47.74
23/10/2015,00:00:00,14.1,533.1,10.02,47.73
24/10/2015,00:00:00,14.3,512.6,10.02,47.73
25/10/2015,00:00:00,14.4,524.6,9.94,47.81
26/10/2015,00:00:00,14.4,526.7,9.88,47.87
27/10/2015,00:00:00,*,*,*,*
28/10/2015,00:00:00,*,*,*,*
29/10/2015,00:00:00,14.5,523.0,9.83,47.92
30/10/2015,00:00:00,14.5,519.4,9.84,47.91
31/10/2015,00:00:00,14.6,522.7,9.80,47.95
01/11/2015,00:00:00,14.6,524.0,9.77,47.98
02/11/2015,00:00:00,14.5,525.9,9.77,47.97
03/11/2015,00:00:00,14.2,545.6,9.81,47.94
04/11/2015,00:00:00,14.1,548.7,9.84,47.90
05/11/2015,00:00:00,14.1,549.3,9.89,47.86
06/11/2015,00:00:00,14.1,548.9,9.91,47.83
07/11/2015,00:00:00,14.1,542.9,9.91,47.84
08/11/2015,00:00:00,14.1,550.7,9.91,47.84
09/11/2015,00:00:00,14.4,518.2,9.85,47.90
10/11/2015,00:00:00,14.5,520.0,9.83,47.92
11/11/2015,00:00:00,14.6,523.4,9.84,47.91
12/11/2015,00:00:00,14.5,529.6,9.84,47.90
13/11/2015,00:00:00,14.0,547.3,9.92,47.83
14/11/2015,00:00:00,13.9,554.4,9.97,47.77
15/11/2015,00:00:00,13.9,556.3,10.05,47.70
16/11/2015,00:00:00,13.9,557.4,10.17,47.57
17/11/2015,00:00:00,13.9,556.6,10.24,47.51
18/11/2015,00:00:00,13.9,556.0,10.26,47.49
19/11/2015,00:00:00,13.9,555.4,10.26,47.49
20/11/2015,00:00:00,13.9,554.3,10.27,47.48
21/11/2015,00:00:00,13.9,554.7,10.30,47.45
22/11/2015,00:00:00,13.9,553.8,10.37,47.38
23/11/2015,00:00:00,13.9,554.1,10.40,47.35
24/11/2015,00:00:00,14.0,540.9,10.34,47.42
25/11/2015,00:00:00,14.1,514.5,10.31,47.44
26/11/2015,00:00:00,14.3,516.5,10.34,47.41
27/11/2015,00:00:00,14.3,517.0,10.39,47.36
28/11/2015,00:00:00,14.4,522.1,10.33,47.42
29/11/2015,00:00:00,14.4,524.5,10.30,47.45
30/11/2015,00:00:00,14.4,525.0,10.26,47.49
01/12/2015,00:00:00,14.5,528.4,10.22,47.53
02/12/2015,00:00:00,14.5,528.9,10.19,47.56
03/12/2015,00:00:00,14.5,526.5,10.17,47.58
04/12/2015,00:00:00,14.5,527.8,10.15,47.61
05/12/2015,00:00:00,14.6,528.6,10.12,47.63
06/12/2015,00:00:00,14.6,529.5,10.11,47.64
07/12/2015,00:00:00,14.5,527.9,10.12,47.62
08/12/2015,00:00:00,14.4,534.8,10.16,47.59
09/12/2015,00:00:00,14.2,547.4,10.21,47.54
10/12/2015,00:00:00,14.3,530.4,10.22,47.53
11/12/2015,00:00:00,14.5,514.3,10.22,47.53
12/12/2015,00:00:00,14.6,512.7,10.24,47.51
13/12/2015,00:00:00,14.6,514.3,10.26,47.49
14/12/2015,00:00:00,14.6,527.8,10.23,47.52
15/12/2015,00:00:00,14.6,525.8,10.23,47.52
16/12/2015,00:00:00,14.5,525.2,10.23,47.52
17/12/2015,00:00:00,14.5,523.6,10.25,47.50
18/12/2015,00:00:00,14.6,512.6,10.28,47.47
19/12/2015,00:00:00,14.6,520.8,10.27,47.48
20/12/2015,00:00:00,14.4,530.1,10.28,47.47
21/12/2015,00:00:00,14.1,549.6,10.28,47.47
22/12/2015,00:00:00,14.2,543.8,10.27,47.48
23/12/2015,00:00:00,14.0,551.6,10.31,47.44
24/12/2015,00:00:00,14.1,549.7,10.32,47.43
25/12/2015,00:00:00,14.2,534.8,10.33,47.42
26/12/2015,00:00:00,14.2,538.6,10.33,47.42
27/12/2015,00:00:00,14.2,535.8,10.35,47.40
28/12/2015,00:00:00,14.2,534.6,10.36,47.39
29/12/2015,00:00:00,14.3,521.8,10.36,47.39
30/12/2015,00:00:00,14.5,506.9,10.39,47.36
31/12/2015,00:00:00,14.5,508.0,10.42,47.33
01/01/2016,00:00:00,14.6,505.2,10.41,47.34
02/01/2016,00:00:00,14.6,520.1,10.35,47.40
03/01/2016,00:00:00,14.7,525.2,10.35,47.40
04/01/2016,00:00:00,14.7,524.0,10.36,47.39
05/01/2016,00:00:00,14.7,531.0,10.40,47.35
06/01/2016,00:00:00,14.7,530.4,10.39,47.36
07/01/2016,00:00:00,14.7,534.0,10.36,47.39
08/01/2016,00:00:00,14.7,536.2,10.42,47.33
09/01/2016,00:00:00,14.7,534.7,10.36,47.39
10/01/2016,00:00:00,*,*,*,*
11/01/2016,00:00:00,14.8,538.6,10.27,47.48
12/01/2016,00:00:00,14.7,537.0,10.28,47.47
13/01/2016,00:00:00,*,*,*,*
14/01/2016,00:00:00,*,*,*,*
15/01/2016,00:00:00,14.8,531.5,10.29,47.46
16/01/2016,00:00:00,*,*,*,*
17/01/2016,00:00:00,14.8,535.9,10.31,47.44
18/01/2016,00:00:00,14.8,537.6,10.39,47.36
19/01/2016,00:00:00,14.8,541.4,10.38,47.37
20/01/2016,00:00:00,14.8,537.5,10.28,47.47
21/01/2016,00:00:00,14.8,541.8,10.25,47.50
22/01/2016,00:00:00,14.8,539.0,10.22,47.53
23/01/2016,00:00:00,14.8,544.3,10.15,47.60
24/01/2016,00:00:00,14.8,545.1,10.12,47.63
25/01/2016,00:00:00,14.8,544.0,10.08,47.67
26/01/2016,00:00:00,14.8,544.9,10.06,47.69
27/01/2016,00:00:00,14.8,540.0,10.07,47.68
28/01/2016,00:00:00,14.8,543.1,10.04,47.71
29/01/2016,00:00:00,14.8,544.8,10.00,47.75
30/01/2016,00:00:00,14.8,541.8,10.01,47.74
31/01/2016,00:00:00,14.8,541.8,10.01,47.74
01/02/2016,00:00:00,14.8,544.5,10.02,47.73
02/02/2016,00:00:00,14.8,541.4,10.04,47.71
03/02/2016,00:00:00,14.8,540.1,10.02,47.74
04/02/2016,00:00:00,14.8,543.3,10.01,47.74
05/02/2016,00:00:00,14.8,538.7,10.05,47.70
06/02/2016,00:00:00,14.9,545.5,10.11,47.64
07/02/2016,00:00:00,14.9,542.4,10.05,47.70
08/02/2016,00:00:00,14.9,550.2,9.97,47.78
09/02/2016,00:00:00,14.9,547.9,9.94,47.81
10/02/2016,00:00:00,14.9,545.6,9.92,47.83
11/02/2016,00:00:00,14.9,546.4,9.94,47.81
12/02/2016,00:00:00,14.9,546.3,9.95,47.80
13/02/2016,00:00:00,*,*,*,*
14/02/2016,00:00:00,*,*,*,*
15/02/2016,00:00:00,14.9,545.7,9.93,47.82
16/02/2016,00:00:00,14.9,541.6,9.89,47.86
17/02/2016,00:00:00,14.9,543.5,9.84,47.91
18/02/2016,00:00:00,14.9,543.2,9.85,47.90
19/02/2016,00:00:00,14.9,543.1,9.91,47.84
20/02/2016,00:00:00,14.9,542.3,9.93,47.82
21/02/2016,00:00:00,14.8,531.2,9.94,47.81
22/02/2016,00:00:00,14.9,522.5,9.97,47.78
23/02/2016,00:00:00,14.9,530.8,9.94,47.81
24/02/2016,00:00:00,14.9,525.6,9.96,47.79
25/02/2016,00:00:00,14.7,530.9,10.00,47.75
26/02/2016,00:00:00,14.3,552.5,10.05,47.70
27/02/2016,00:00:00,14.7,531.4,10.02,47.73
28/02/2016,00:00:00,*,*,*,*
29/02/2016,00:00:00,14.9,545.4,9.93,47.82
01/03/2016,00:00:00,*,*,*,*
02/03/2016,00:00:00,*,*,*,*
03/03/2016,00:00:00,*,*,*,*
04/03/2016,00:00:00,*,*,*,*
05/03/2016,00:00:00,*,*,*,*
06/03/2016,00:00:00,14.9,544.2,10.00,47.75
07/03/2016,00:00:00,14.9,543.9,9.98,47.77
08/03/2016,00:00:00,14.9,540.7,10.00,47.75
09/03/2016,00:00:00,14.9,543.5,10.03,47.72
10/03/2016,00:00:00,14.9,542.7,10.06,47.69
11/03/2016,00:00:00,14.9,544.3,10.02,47.73
12/03/2016,00:00:00,*,*,*,*
13/03/2016,00:00:00,*,*,*,*
14/03/2016,00:00:00,14.9,554.7,10.01,47.74
15/03/2016,00:00:00,14.9,554.7,10.01,47.74
16/03/2016,00:00:00,14.9,554.3,9.94,47.81
17/03/2016,00:00:00,14.9,555.6,9.88,47.87
18/03/2016,00:00:00,14.9,554.2,9.85,47.90
19/03/2016,00:00:00,14.9,549.9,9.87,47.88
20/03/2016,00:00:00,14.9,546.4,9.93,47.82
21/03/2016,00:00:00,14.9,548.5,9.91,47.84
22/03/2016,00:00:00,14.9,540.2,9.89,47.86
23/03/2016,00:00:00,14.9,543.7,9.90,47.85
24/03/2016,00:00:00,14.9,535.0,9.97,47.78
25/03/2016,00:00:00,14.8,553.6,10.00,47.75
26/03/2016,00:00:00,*,*,*,*
27/03/2016,00:00:00,14.8,550.6,9.98,47.77
28/03/2016,00:00:00,14.7,554.2,10.00,47.75
29/03/2016,00:00:00,14.8,527.9,9.99,47.76
30/03/2016,00:00:00,*,*,*,*
31/03/2016,00:00:00,14.6,562.0,9.98,47.77
01/04/2016,00:00:00,14.5,570.7,9.99,47.76
02/04/2016,00:00:00,14.3,586.2,10.04,47.71
03/04/2016,00:00:00,14.3,591.0,10.08,47.67
04/04/2016,00:00:00,14.1,594.7,10.14,47.61
05/04/2016,00:00:00,14.0,595.6,10.20,47.55
06/04/2016,00:00:00,14.0,597.2,10.26,47.49
07/04/2016,00:00:00,14.0,596.8,10.31,47.44
08/04/2016,00:00:00,13.9,600.3,10.37,47.38
09/04/2016,00:00:00,13.9,603.5,10.46,47.29
10/04/2016,00:00:00,13.9,605.6,10.52,47.23
11/04/2016,00:00:00,13.9,606.0,10.57,47.18
12/04/2016,00:00:00,13.9,609.7,10.60,47.15
13/04/2016,00:00:00,13.9,606.1,10.59,47.16
14/04/2016,00:00:00,13.9,603.4,10.60,47.15
15/04/2016,00:00:00,13.9,606.0,10.65,47.10
16/04/2016,00:00:00,13.9,607.9,10.68,47.07
17/04/2016,00:00:00,13.9,608.9,10.69,47.06
18/04/2016,00:00:00,13.8,606.8,10.75,47.00
19/04/2016,00:00:00,13.8,606.3,10.82,46.93
20/04/2016,00:00:00,13.8,606.4,10.90,46.85
21/04/2016,00:00:00,13.8,606.8,10.97,46.78
22/04/2016,00:00:00,13.8,606.7,11.03,46.72
23/04/2016,00:00:00,13.8,607.0,11.07,46.68
24/04/2016,00:00:00,13.8,605.9,11.16,46.59
25/04/2016,00:00:00,13.8,605.6,11.27,46.48
26/04/2016,00:00:00,13.8,606.6,11.33,46.42
27/04/2016,00:00:00,13.8,607.0,11.38,46.37
28/04/2016,00:00:00,13.8,609.9,11.35,46.40
29/04/2016,00:00:00,13.8,608.2,11.40,46.35
30/04/2016,00:00:00,13.8,609.3,11.42,46.33
01/05/2016,00:00:00,13.8,608.9,11.49,46.26
02/05/2016,00:00:00,13.8,607.9,11.47,46.28
03/05/2016,00:00:00,13.9,574.8,11.46,46.29
04/05/2016,00:00:00,13.8,607.9,11.50,46.25
05/05/2016,00:00:00,13.8,601.4,11.51,46.24
06/05/2016,00:00:00,*,*,*,*
07/05/2016,00:00:00,13.8,609.4,11.51,46.24
08/05/2016,00:00:00,13.8,610.5,11.52,46.23
09/05/2016,00:00:00,13.8,611.9,11.58,46.17
10/05/2016,00:00:00,13.8,612.7,11.60,46.15
11/05/2016,00:00:00,13.8,612.3,11.68,46.07
12/05/2016,00:00:00,13.8,612.9,11.75,46.00
13/05/2016,00:00:00,13.8,611.9,11.85,45.90
14/05/2016,00:00:00,13.8,611.9,11.93,45.82
15/05/2016,00:00:00,13.8,612.0,11.99,45.76
16/05/2016,00:00:00,13.8,611.4,12.04,45.71
17/05/2016,00:00:00,13.8,612.9,12.08,45.67
18/05/2016,00:00:00,13.8,610.7,12.16,45.59
19/05/2016,00:00:00,13.8,610.1,12.17,45.58
20/05/2016,00:00:00,13.8,609.6,12.22,45.53
21/05/2016,00:00:00,13.8,609.1,12.29,45.46
22/05/2016,00:00:00,13.8,607.7,12.36,45.39
23/05/2016,00:00:00,13.8,606.1,12.40,45.35
24/05/2016,00:00:00,13.8,606.5,12.42,45.33
25/05/2016,00:00:00,13.8,604.5,12.45,45.30
26/05/2016,00:00:00,13.8,605.1,12.51,45.24
27/05/2016,00:00:00,13.8,606.1,12.56,45.19
28/05/2016,00:00:00,13.8,606.5,12.58,45.17
29/05/2016,00:00:00,13.8,605.9,12.63,45.12
30/05/2016,00:00:00,13.8,605.7,12.70,45.05
31/05/2016,00:00:00,13.8,604.4,12.76,44.99
01/06/2016,00:00:00,13.8,604.3,12.83,44.92
02/06/2016,00:00:00,13.9,604.3,12.88,44.87
03/06/2016,00:00:00,13.9,603.1,12.97,44.78
04/06/2016,00:00:00,13.9,604.0,13.05,44.70
05/06/2016,00:00:00,13.9,602.9,13.12,44.63
06/06/2016,00:00:00,13.9,602.8,13.16,44.59
07/06/2016,00:00:00,13.9,602.3,13.22,44.53
08/06/2016,00:00:00,13.9,601.6,13.29,44.46
09/06/2016,00:00:00,13.9,602.7,13.34,44.41
10/06/2016,00:00:00,13.9,601.3,13.36,44.39
11/06/2016,00:00:00,13.9,598.5,13.40,44.35
12/06/2016,00:00:00,13.9,599.8,13.42,44.33
13/06/2016,00:00:00,13.9,599.4,13.48,44.27
14/06/2016,00:00:00,13.9,599.7,13.58,44.17
15/06/2016,00:00:00,13.9,599.0,13.70,44.05
16/06/2016,00:00:00,13.9,601.0,13.72,44.03
17/06/2016,00:00:00,13.9,598.7,13.75,44.00
18/06/2016,00:00:00,13.9,598.8,13.82,43.93
19/06/2016,00:00:00,13.9,599.5,13.91,43.84
20/06/2016,00:00:00,13.9,598.8,14.01,43.74
21/06/2016,00:00:00,13.9,599.2,14.07,43.68
22/06/2016,00:00:00,13.9,598.1,14.14,43.61
23/06/2016,00:00:00,13.9,597.7,14.21,43.54
24/06/2016,00:00:00,13.9,597.3,14.28,43.47
25/06/2016,00:00:00,13.9,597.0,14.36,43.39
26/06/2016,00:00:00,13.9,595.6,14.43,43.32
27/06/2016,00:00:00,14.0,595.8,14.47,43.28
28/06/2016,00:00:00,14.0,597.2,14.52,43.23
29/06/2016,00:00:00,14.0,594.6,14.59,43.16
30/06/2016,00:00:00,14.0,595.8,14.66,43.09
01/07/2016,00:00:00,14.0,594.1,14.69,43.06
02/07/2016,00:00:00,14.0,593.5,14.77,42.98
03/07/2016,00:00:00,14.0,592.4,14.87,42.88
04/07/2016,00:00:00,14.0,591.8,14.95,42.80
05/07/2016,00:00:00,14.0,589.3,15.03,42.72
06/07/2016,00:00:00,14.0,588.9,15.08,42.67
07/07/2016,00:00:00,14.0,585.0,15.13,42.62
08/07/2016,00:00:00,14.0,583.2,15.18,42.57
09/07/2016,00:00:00,14.0,581.8,15.23,42.52
10/07/2016,00:00:00,14.0,581.0,15.30,42.45
11/07/2016,00:00:00,14.1,579.4,15.37,42.38
12/07/2016,00:00:00,14.1,578.7,15.43,42.32
13/07/2016,00:00:00,14.1,577.4,15.50,42.25
14/07/2016,00:00:00,14.1,577.1,15.57,42.18
15/07/2016,00:00:00,14.1,575.9,15.65,42.10
16/07/2016,00:00:00,14.1,575.0,15.74,42.01
17/07/2016,00:00:00,14.1,574.0,15.81,41.94
18/07/2016,00:00:00,14.1,573.7,15.90,41.85
19/07/2016,00:00:00,14.1,573.5,15.97,41.78
20/07/2016,00:00:00,14.1,571.4,16.07,41.68
21/07/2016,00:00:00,14.1,570.9,16.13,41.62
22/07/2016,00:00:00,14.1,568.8,16.16,41.59
23/07/2016,00:00:00,14.1,567.2,16.20,41.55
24/07/2016,00:00:00,14.1,564.3,16.29,41.46
25/07/2016,00:00:00,14.1,562.2,16.39,41.36
26/07/2016,00:00:00,14.0,561.2,16.48,41.27
27/07/2016,00:00:00,14.0,560.9,16.52,41.23
28/07/2016,00:00:00,14.0,560.0,16.56,41.19
29/07/2016,00:00:00,14.0,558.9,16.63,41.12
30/07/2016,00:00:00,14.0,558.5,16.70,41.05
31/07/2016,00:00:00,14.0,557.6,16.78,40.97
01/08/2016,00:00:00,14.0,557.0,16.84,40.91
02/08/2016,00:00:00,14.0,555.5,16.88,40.87
03/08/2016,00:00:00,14.0,553.8,16.95,40.80
04/08/2016,00:00:00,14.0,554.3,17.02,40.73
05/08/2016,00:00:00,14.0,554.4,17.08,40.67
06/08/2016,00:00:00,14.0,554.1,17.17,40.58
07/08/2016,00:00:00,14.0,554.7,17.24,40.51
08/08/2016,00:00:00,14.0,552.9,17.32,40.43
09/08/2016,00:00:00,14.0,552.9,17.41,40.34
10/08/2016,00:00:00,14.0,553.0,17.52,40.23
11/08/2016,00:00:00,14.0,553.8,17.61,40.14
12/08/2016,00:00:00,14.0,554.0,17.67,40.08
13/08/2016,00:00:00,14.0,554.1,17.75,40.00
14/08/2016,00:00:00,14.0,554.1,17.81,39.94
15/08/2016,00:00:00,14.0,555.4,17.86,39.89
16/08/2016,00:00:00,14.1,556.8,17.89,39.86
17/08/2016,00:00:00,14.1,555.7,17.93,39.82
18/08/2016,00:00:00,14.0,554.0,18.04,39.71
19/08/2016,00:00:00,14.1,553.1,18.14,39.61
20/08/2016,00:00:00,14.1,553.1,18.23,39.52
21/08/2016,00:00:00,14.1,553.1,18.30,39.45
22/08/2016,00:00:00,14.1,553.4,18.33,39.42
23/08/2016,00:00:00,14.1,552.9,18.36,39.39
24/08/2016,00:00:00,14.1,551.6,18.46,39.29
25/08/2016,00:00:00,14.1,551.8,18.56,39.19
26/08/2016,00:00:00,14.1,552.4,18.65,39.10
27/08/2016,00:00:00,14.1,552.7,18.72,39.03
28/08/2016,00:00:00,14.1,553.3,18.75,39.00
29/08/2016,00:00:00,14.1,553.6,18.80,38.95
30/08/2016,00:00:00,14.1,554.0,18.87,38.88
31/08/2016,00:00:00,14.1,553.9,18.92,38.83
01/09/2016,00:00:00,14.1,553.5,18.98,38.77
02/09/2016,00:00:00,14.1,552.9,19.05,38.70
03/09/2016,00:00:00,14.1,552.3,19.13,38.62
04/09/2016,00:00:00,14.1,552.0,19.19,38.56
05/09/2016,00:00:00,14.1,551.4,19.21,38.54
06/09/2016,00:00:00,14.1,551.0,19.26,38.49
07/09/2016,00:00:00,14.1,551.2,19.34,38.41
08/09/2016,00:00:00,14.1,551.3,19.39,38.36
09/09/2016,00:00:00,14.1,551.5,19.47,38.28
10/09/2016,00:00:00,14.1,551.9,19.55,38.20
11/09/2016,00:00:00,14.1,552.4,19.60,38.15
12/09/2016,00:00:00,14.1,553.4,19.65,38.10
13/09/2016,00:00:00,14.1,554.3,19.71,38.04
14/09/2016,00:00:00,14.1,554.5,19.77,37.98
15/09/2016,00:00:00,14.1,554.9,19.82,37.93
16/09/2016,00:00:00,14.1,554.2,19.85,37.90
17/09/2016,00:00:00,14.1,553.6,19.85,37.90
18/09/2016,00:00:00,14.1,553.6,19.90,37.85
19/09/2016,00:00:00,14.1,553.2,19.97,37.78
20/09/2016,00:00:00,14.1,552.7,20.06,37.69
21/09/2016,00:00:00,14.1,553.3,20.14,37.61
22/09/2016,00:00:00,14.2,553.8,20.16,37.59
23/09/2016,00:00:00,14.2,554.6,20.18,37.57
24/09/2016,00:00:00,14.2,554.8,20.18,37.57
25/09/2016,00:00:00,14.2,553.3,20.20,37.55
26/09/2016,00:00:00,14.2,553.5,20.24,37.51
27/09/2016,00:00:00,14.2,554.2,20.28,37.47
28/09/2016,00:00:00,14.2,553.8,20.31,37.44
29/09/2016,00:00:00,14.2,554.3,20.34,37.41
30/09/2016,00:00:00,14.2,554.3,20.39,37.36
01/10/2016,00:00:00,14.2,554.6,20.47,37.28
02/10/2016,00:00:00,14.2,554.4,20.55,37.20
03/10/2016,00:00:00,14.2,554.2,20.60,37.15
04/10/2016,00:00:00,14.2,554.3,20.65,37.10
05/10/2016,00:00:00,14.2,554.3,20.73,37.02
06/10/2016,00:00:00,14.2,554.2,20.80,36.95
07/10/2016,00:00:00,14.2,554.5,20.82,36.93
08/10/2016,00:00:00,14.2,555.4,20.82,36.93
09/10/2016,00:00:00,14.2,556.1,20.88,36.87
10/10/2016,00:00:00,14.2,556.9,20.87,36.88
11/10/2016,00:00:00,14.2,556.8,20.89,36.86
12/10/2016,00:00:00,14.2,556.4,20.96,36.79
13/10/2016,00:00:00,14.2,556.5,21.01,36.74
14/10/2016,00:00:00,14.2,556.4,21.02,36.73
15/10/2016,00:00:00,14.2,556.0,21.06,36.69
16/10/2016,00:00:00,14.2,555.7,21.10,36.65
17/10/2016,00:00:00,14.2,555.3,21.14,36.61
18/10/2016,00:00:00,14.2,554.9,21.19,36.56
19/10/2016,00:00:00,14.2,554.9,21.21,36.54
20/10/2016,00:00:00,14.2,553.5,21.19,36.56
21/10/2016,00:00:00,14.2,552.7,21.24,36.51
22/10/2016,00:00:00,14.2,552.5,21.28,36.47
23/10/2016,00:00:00,14.2,552.6,21.31,36.44
24/10/2016,00:00:00,14.3,552.7,21.34,36.41
25/10/2016,00:00:00,14.3,553.4,21.36,36.39
26/10/2016,00:00:00,14.3,553.3,21.39,36.36
27/10/2016,00:00:00,14.3,553.5,21.40,36.35
28/10/2016,00:00:00,14.3,553.4,21.41,36.34
29/10/2016,00:00:00,14.3,552.8,21.42,36.33
30/10/2016,00:00:00,14.3,552.9,21.43,36.32
31/10/2016,00:00:00,14.3,552.4,21.48,36.27
01/11/2016,00:00:00,14.3,551.0,21.52,36.23
02/11/2016,00:00:00,14.3,545.9,21.44,36.31
03/11/2016,00:00:00,*,*,*,*
04/11/2016,00:00:00,14.3,547.1,21.30,36.45
05/11/2016,00:00:00,14.3,549.4,21.23,36.52
06/11/2016,00:00:00,14.3,552.3,21.21,36.54
07/11/2016,00:00:00,14.3,552.5,21.18,36.57
08/11/2016,00:00:00,14.3,553.9,21.18,36.57
09/11/2016,00:00:00,14.3,553.8,21.16,36.59
10/11/2016,00:00:00,14.3,553.8,21.19,36.56
11/11/2016,00:00:00,14.3,553.7,21.15,36.60
12/11/2016,00:00:00,14.3,553.6,21.11,36.64
13/11/2016,00:00:00,14.3,553.6,21.10,36.65
14/11/2016,00:00:00,14.3,553.3,21.09,36.66
15/11/2016,00:00:00,14.3,553.7,21.07,36.68
16/11/2016,00:00:00,14.3,553.3,21.05,36.70
17/11/2016,00:00:00,14.3,553.9,21.06,36.69
18/11/2016,00:00:00,14.3,554.0,21.06,36.69
19/11/2016,00:00:00,*,*,*,*
20/11/2016,00:00:00,14.3,554.3,21.05,36.70
21/11/2016,00:00:00,14.3,553.4,21.05,36.70
22/11/2016,00:00:00,14.3,489.1,20.99,36.76
23/11/2016,00:00:00,14.3,517.3,20.95,36.80
24/11/2016,00:00:00,14.3,554.7,20.92,36.83
25/11/2016,00:00:00,14.3,553.7,20.93,36.82
26/11/2016,00:00:00,14.3,553.6,20.94,36.81
27/11/2016,00:00:00,14.3,553.7,20.95,36.80
28/11/2016,00:00:00,*,*,*,*
29/11/2016,00:00:00,14.3,554.2,21.00,36.75
30/11/2016,00:00:00,14.3,554.3,21.03,36.72
01/12/2016,00:00:00,14.3,554.2,21.02,36.73
02/12/2016,00:00:00,14.3,553.3,20.99,36.76
03/12/2016,00:00:00,*,*,*,*
04/12/2016,00:00:00,14.3,554.0,20.88,36.87
05/12/2016,00:00:00,14.3,553.0,20.84,36.91
06/12/2016,00:00:00,14.3,553.2,20.82,36.93
07/12/2016,00:00:00,*,*,*,*
08/12/2016,00:00:00,*,*,*,*
09/12/2016,00:00:00,14.3,552.4,20.76,36.99
10/12/2016,00:00:00,14.3,551.2,20.77,36.98
11/12/2016,00:00:00,*,*,*,*
12/12/2016,00:00:00,14.3,552.7,20.82,36.93
13/12/2016,00:00:00,14.3,553.4,20.86,36.89
14/12/2016,00:00:00,14.3,554.3,20.86,36.89
15/12/2016,00:00:00,14.3,554.9,20.78,36.97
16/12/2016,00:00:00,14.3,555.4,20.77,36.98
17/12/2016,00:00:00,14.3,555.7,20.75,37.00
18/12/2016,00:00:00,14.3,554.3,20.71,37.04
19/12/2016,00:00:00,14.3,553.6,20.71,37.04
20/12/2016,00:00:00,14.3,554.0,20.70,37.05
21/12/2016,00:00:00,*,*,*,*
22/12/2016,00:00:00,14.3,554.7,20.75,37.00
23/12/2016,00:00:00,14.3,555.3,20.76,36.99
24/12/2016,00:00:00,14.3,549.0,20.73,37.02
25/12/2016,00:00:00,14.3,469.9,20.69,37.06
26/12/2016,00:00:00,14.4,468.8,20.63,37.12
27/12/2016,00:00:00,14.4,500.4,20.57,37.18
28/12/2016,00:00:00,14.4,510.7,20.50,37.25
29/12/2016,00:00:00,14.3,514.2,20.50,37.25
30/12/2016,00:00:00,14.3,513.7,20.51,37.24
31/12/2016,00:00:00,14.3,512.9,20.42,37.33
01/01/2017,00:00:00,14.3,523.3,20.33,37.42
02/01/2017,00:00:00,14.3,533.2,20.27,37.48
03/01/2017,00:00:00,14.3,540.3,20.21,37.54
04/01/2017,00:00:00,14.3,546.9,20.17,37.58
05/01/2017,00:00:00,14.3,553.3,20.15,37.60
06/01/2017,00:00:00,14.3,555.0,20.14,37.61
07/01/2017,00:00:00,14.3,545.8,20.08,37.67
08/01/2017,00:00:00,14.3,555.8,19.91,37.84
09/01/2017,00:00:00,14.4,561.8,19.74,38.01
10/01/2017,00:00:00,14.4,563.0,19.58,38.17
11/01/2017,00:00:00,*,*,*,*
12/01/2017,00:00:00,14.4,567.0,19.26,38.49
13/01/2017,00:00:00,*,*,*,*
14/01/2017,00:00:00,14.4,568.2,19.05,38.70
15/01/2017,00:00:00,14.4,567.9,18.98,38.77